TimeCDT,TemperatureF,Dew PointF,Humidity,Sea Level PressureIn,VisibilityMPH,Wind Direction,Wind SpeedMPH,Gust SpeedMPH,PrecipitationIn,Events,Conditions,WindDirDegrees,DateUTC
12:15 AM,42.8,32.0,66,29.93,10.0,NE,12.7,-,N/A,,Clear,40,2013-03-17 05:15:00
12:35 AM,41.0,32.0,70,29.93,10.0,ENE,9.2,13.8,N/A,,Clear,60,2013-03-17 05:35:00
12:55 AM,41.0,32.0,70,29.91,10.0,NE,10.4,-,N/A,,Clear,40,2013-03-17 05:55:00
1:15 AM,41.0,32.0,70,29.90,10.0,NE,10.4,13.8,N/A,,Clear,40,2013-03-17 06:15:00
1:35 AM,41.0,30.2,65,29.91,10.0,NNE,11.5,-,N/A,,Clear,30,2013-03-17 06:35:00
1:55 AM,39.2,30.2,70,29.90,10.0,NE,13.8,18.4,N/A,,Clear,50,2013-03-17 06:55:00
2:15 AM,39.2,30.2,70,29.90,10.0,NE,11.5,-,N/A,,Scattered Clouds,50,2013-03-17 07:15:00
2:35 AM,39.2,30.2,70,29.90,10.0,NNE,8.1,-,N/A,,Scattered Clouds,30,2013-03-17 07:35:00
2:55 AM,37.4,30.2,75,29.91,10.0,NNE,8.1,-,N/A,,Scattered Clouds,20,2013-03-17 07:55:00
3:15 AM,37.4,30.2,75,29.91,10.0,North,6.9,-,N/A,,Mostly Cloudy,10,2013-03-17 08:15:00
3:35 AM,37.4,30.2,75,29.91,10.0,NNE,6.9,-,N/A,,Mostly Cloudy,20,2013-03-17 08:35:00
3:55 AM,37.4,30.2,75,29.92,10.0,North,8.1,-,N/A,,Scattered Clouds,360,2013-03-17 08:55:00
4:15 AM,35.6,30.2,81,29.90,10.0,NNE,10.4,-,N/A,,Scattered Clouds,20,2013-03-17 09:15:00
4:35 AM,35.6,28.4,75,29.89,10.0,North,10.4,-,N/A,,Scattered Clouds,10,2013-03-17 09:35:00
4:55 AM,35.6,28.4,75,29.88,10.0,NNE,10.4,-,N/A,,Scattered Clouds,30,2013-03-17 09:55:00
5:15 AM,35.6,28.4,75,29.86,10.0,NE,9.2,-,N/A,,Mostly Cloudy,50,2013-03-17 10:15:00
5:35 AM,35.6,28.4,75,29.87,10.0,NE,10.4,-,N/A,,Scattered Clouds,40,2013-03-17 10:35:00
5:55 AM,33.8,28.4,81,29.88,10.0,ENE,6.9,-,N/A,,Mostly Cloudy,60,2013-03-17 10:55:00
6:15 AM,33.8,28.4,81,29.89,10.0,ENE,4.6,-,N/A,,Scattered Clouds,70,2013-03-17 11:15:00
6:35 AM,32.0,28.4,87,29.91,10.0,Calm,Calm,-,N/A,,Clear,0,2013-03-17 11:35:00
6:55 AM,32.0,28.4,87,29.88,10.0,NE,5.8,-,N/A,,Clear,40,2013-03-17 11:55:00
7:15 AM,33.8,28.4,81,29.89,10.0,NE,5.8,-,N/A,,Clear,50,2013-03-17 12:15:00
7:35 AM,32.0,28.4,87,29.88,10.0,NNE,5.8,-,N/A,,Scattered Clouds,20,2013-03-17 12:35:00
7:55 AM,32.0,28.4,87,29.87,10.0,NNE,3.5,-,N/A,,Clear,30,2013-03-17 12:55:00
8:15 AM,32.0,28.4,87,29.90,10.0,Calm,Calm,-,N/A,,Clear,0,2013-03-17 13:15:00
8:35 AM,32.0,28.4,87,29.88,10.0,NNW,3.5,-,N/A,,Clear,340,2013-03-17 13:35:00
8:55 AM,33.8,28.4,81,29.90,10.0,North,5.8,-,N/A,,Clear,350,2013-03-17 13:55:00
9:15 AM,33.8,28.4,81,29.90,10.0,North,5.8,-,N/A,,Clear,350,2013-03-17 14:15:00
9:35 AM,35.6,28.4,75,29.91,10.0,NNW,4.6,-,N/A,,Clear,330,2013-03-17 14:35:00
9:55 AM,35.6,28.4,75,29.91,10.0,NW,8.1,-,N/A,,Clear,320,2013-03-17 14:55:00
10:15 AM,37.4,28.4,70,29.89,10.0,Calm,Calm,-,N/A,,Clear,0,2013-03-17 15:15:00
10:35 AM,37.4,28.4,70,29.88,10.0,WNW,3.5,-,N/A,,Clear,290,2013-03-17 15:35:00
10:55 AM,41.0,28.4,61,29.87,10.0,Calm,Calm,-,N/A,,Clear,0,2013-03-17 15:55:00
11:15 AM,41.0,28.4,61,29.86,10.0,Calm,Calm,-,N/A,,Clear,0,2013-03-17 16:15:00
11:35 AM,42.8,28.4,57,29.86,10.0,Calm,Calm,-,N/A,,Clear,0,2013-03-17 16:35:00
11:55 AM,44.6,28.4,53,29.85,10.0,NE,4.6,-,N/A,,Clear,50,2013-03-17 16:55:00
12:15 PM,44.6,28.4,53,29.84,10.0,NW,3.5,-,N/A,,Clear,320,2013-03-17 17:15:00
12:35 PM,46.4,28.4,50,29.82,10.0,Calm,Calm,-,N/A,,Clear,0,2013-03-17 17:35:00
12:55 PM,50.0,28.4,43,29.80,10.0,ESE,4.6,-,N/A,,Clear,110,2013-03-17 17:55:00
1:15 PM,50.0,28.4,43,29.79,10.0,Calm,Calm,-,N/A,,Clear,0,2013-03-17 18:15:00
1:35 PM,50.0,28.4,43,29.78,10.0,SSW,3.5,-,N/A,,Clear,210,2013-03-17 18:35:00
1:55 PM,51.8,28.4,41,29.76,10.0,SSE,5.8,-,N/A,,Clear,160,2013-03-17 18:55:00
2:15 PM,55.4,28.4,36,29.75,10.0,SSW,5.8,-,N/A,,Clear,210,2013-03-17 19:15:00
2:35 PM,53.6,28.4,38,29.73,10.0,South,9.2,-,N/A,,Clear,180,2013-03-17 19:35:00
2:55 PM,55.4,30.2,38,29.71,10.0,SSE,5.8,-,N/A,,Clear,150,2013-03-17 19:55:00
3:15 PM,55.4,30.2,38,29.69,10.0,SSE,5.8,-,N/A,,Clear,150,2013-03-17 20:15:00
3:35 PM,59.0,30.2,34,29.66,10.0,South,8.1,-,N/A,,Clear,190,2013-03-17 20:35:00
3:55 PM,60.8,30.2,31,29.64,10.0,SSE,11.5,17.3,N/A,,Clear,160,2013-03-17 20:55:00
4:15 PM,62.6,32.0,32,29.62,10.0,South,11.5,-,N/A,,Clear,180,2013-03-17 21:15:00
4:35 PM,62.6,32.0,32,29.60,10.0,SSE,15.0,20.7,N/A,,Clear,150,2013-03-17 21:35:00
4:55 PM,66.2,32.0,28,29.59,10.0,SSE,11.5,-,N/A,,Clear,160,2013-03-17 21:55:00
5:15 PM,64.4,32.0,30,29.57,10.0,South,16.1,21.9,N/A,,Clear,180,2013-03-17 22:15:00
5:35 PM,64.4,32.0,30,29.57,10.0,South,20.7,24.2,N/A,,Clear,170,2013-03-17 22:35:00
5:55 PM,64.4,32.0,30,29.56,10.0,South,19.6,24.2,N/A,,Clear,170,2013-03-17 22:55:00
6:15 PM,62.6,32.0,32,29.60,10.0,South,15.0,21.9,N/A,,Mostly Cloudy,170,2013-03-17 23:15:00
6:35 PM,66.2,33.8,30,29.59,10.0,WSW,10.4,-,N/A,,Overcast,240,2013-03-17 23:35:00
6:55 PM,64.4,33.8,32,29.56,10.0,Calm,Calm,-,N/A,,Scattered Clouds,0,2013-03-17 23:55:00
7:15 PM,68.0,33.8,28,29.54,10.0,SSW,13.8,17.3,N/A,,Clear,200,2013-03-18 00:15:00
7:35 PM,62.6,35.6,37,29.55,10.0,South,20.7,27.6,N/A,,Clear,180,2013-03-18 00:35:00
7:55 PM,59.0,35.6,42,29.55,10.0,South,20.7,29.9,N/A,,Clear,170,2013-03-18 00:55:00
8:15 PM,57.2,37.4,48,29.56,10.0,South,21.9,28.8,N/A,,Clear,170,2013-03-18 01:15:00
8:35 PM,55.4,37.4,51,29.56,10.0,South,20.7,26.5,N/A,,Clear,170,2013-03-18 01:35:00
9:15 PM,53.6,35.6,51,29.57,10.0,South,20.7,27.6,N/A,,Clear,170,2013-03-18 02:15:00
9:55 PM,51.8,33.8,50,29.58,10.0,South,20.7,28.8,N/A,,Clear,170,2013-03-18 02:55:00
10:15 PM,51.8,35.6,54,29.59,10.0,SSE,13.8,24.2,N/A,,Clear,160,2013-03-18 03:15:00
10:35 PM,50.0,33.8,54,29.60,10.0,NNE,3.5,-,N/A,,Clear,20,2013-03-18 03:35:00
10:55 PM,50.0,35.6,58,29.60,10.0,Calm,Calm,-,N/A,,Clear,0,2013-03-18 03:55:00
11:15 PM,50.0,33.8,54,29.61,10.0,Calm,Calm,-,N/A,,Clear,0,2013-03-18 04:15:00
11:35 PM,48.2,33.8,58,29.60,10.0,Calm,Calm,-,N/A,,Clear,0,2013-03-18 04:35:00
11:55 PM,48.2,33.8,58,29.60,10.0,SSW,4.6,-,N/A,,Clear,200,2013-03-18 04:55:00